IFA1107 DXXX-EDDL

Flight info

Callsign IFA1107
Flight time N/A
Altitude 35000
Route AMSOM2S AMSOM UR983 PAMPA UB726 NY UG855 TMS UZ111 ELO UR978 CSO UA605 CIRTA DCT ERPIN DCT NOSTA DCT CERVI DCT DEVDI DCT SUTAL N852 DIK N853 ELDAR DCT BIKMU BIKMU1A
Aircraft CL60/M-SBDE1E2E3FGHIJ1J4J5J7M3RWXYZ/LB1V1D1

Departure

Time 2026-04-14 16:15
Airport Lomé–Tokoin International Airport (DXXX)

Arrival

Time N/A
Airport Düsseldorf Airport (EDDL)
Time Latitude Longitude Altitude Speed Heading
2026-04-14 15:52 6.17301 1.25661 78 ft 0 kts 37°
2026-04-14 16:11 6.17304 1.25663 78 ft 3 kts 37°
2026-04-14 16:12 6.17305 1.25693 77 ft 5 kts 128°
2026-04-14 16:12 6.17305 1.25731 76 ft 8 kts 38°
2026-04-14 16:12 6.17319 1.25774 74 ft 8 kts 98°
2026-04-14 16:12 6.17362 1.25829 72 ft 10 kts 38°
2026-04-14 16:13 6.17434 1.25885 69 ft 15 kts 39°
2026-04-14 16:13 6.17520 1.25954 67 ft 16 kts 38°
2026-04-14 16:13 6.17616 1.26031 68 ft 18 kts 39°
2026-04-14 16:13 6.17693 1.26093 68 ft 9 kts 39°
2026-04-14 16:14 6.17712 1.26146 68 ft 8 kts 113°
2026-04-14 16:14 6.17674 1.26192 66 ft 10 kts 131°
2026-04-14 16:14 6.17630 1.26241 65 ft 6 kts 135°
2026-04-14 16:14 6.17601 1.26236 64 ft 2 kts 217°
2026-04-14 16:15 6.17473 1.26135 63 ft 62 kts 218°
2026-04-14 16:15 6.16926 1.25698 73 ft 133 kts 218°
2026-04-14 16:15 6.16085 1.25034 268 ft 166 kts 216°
2026-04-14 16:15 6.15146 1.24317 823 ft 168 kts 215°
2026-04-14 16:16 6.14072 1.23960 1243 ft 167 kts 173°
2026-04-14 16:16 6.13085 1.24577 1522 ft 181 kts 122°
2026-04-14 16:16 6.12920 1.25845 1751 ft 199 kts 75°
2026-04-14 16:16 6.13634 1.27113 1954 ft 218 kts 44°
2026-04-14 16:17 6.14931 1.27880 2379 ft 220 kts
2026-04-14 16:17 6.16432 1.27795 2867 ft 215 kts 335°
2026-04-14 16:17 6.17787 1.27182 3357 ft 215 kts 332°
2026-04-14 16:17 6.19163 1.26548 3816 ft 218 kts 334°
2026-04-14 16:18 6.20544 1.25933 4280 ft 218 kts 335°
2026-04-14 16:18 6.21987 1.25291 4344 ft 240 kts 335°
2026-04-14 16:18 6.23613 1.24568 4500 ft 263 kts 336°
2026-04-14 16:18 6.25322 1.23810 4957 ft 273 kts 336°
2026-04-14 16:19 6.27066 1.23036 5534 ft 276 kts 337°
2026-04-14 16:19 6.28840 1.22248 6152 ft 279 kts 338°
2026-04-14 16:19 6.30621 1.21458 6701 ft 282 kts 338°
2026-04-14 16:19 6.32440 1.20651 7252 ft 285 kts 339°
2026-04-14 16:20 6.34253 1.19846 7803 ft 287 kts 339°
2026-04-14 16:20 6.36101 1.19026 8344 ft 290 kts 339°
2026-04-14 16:20 6.37964 1.18199 8865 ft 293 kts 340°
2026-04-14 16:20 6.39833 1.17370 9388 ft 296 kts 340°
2026-04-14 16:21 6.41790 1.16505 9459 ft 316 kts 340°
2026-04-14 16:21 6.43842 1.15598 9649 ft 328 kts 340°
2026-04-14 16:21 6.45947 1.14663 10014 ft 334 kts 340°
2026-04-14 16:21 6.48101 1.13706 10381 ft 339 kts 340°
2026-04-14 16:22 6.50292 1.12733 10900 ft 348 kts 340°
2026-04-14 16:22 6.52520 1.11742 11662 ft 350 kts 339°
2026-04-14 16:22 6.54741 1.10754 12376 ft 353 kts 339°
2026-04-14 16:22 6.57006 1.09747 13013 ft 358 kts 339°
2026-04-14 16:23 6.59338 1.08794 13659 ft 360 kts 342°
2026-04-14 16:23 6.61676 1.07931 14291 ft 362 kts 343°
2026-04-14 16:23 6.64071 1.07048 14922 ft 364 kts 342°
2026-04-14 16:23 6.66450 1.06170 15486 ft 366 kts 342°
2026-04-14 16:24 6.68852 1.05283 16026 ft 369 kts 342°
2026-04-14 16:24 6.71287 1.04385 16525 ft 372 kts 342°
2026-04-14 16:24 6.73725 1.03485 17056 ft 374 kts 342°
2026-04-14 16:24 6.76174 1.02581 17558 ft 377 kts 342°
2026-04-14 16:25 6.78662 1.01662 18049 ft 379 kts 342°
2026-04-14 16:25 6.81143 1.00746 18523 ft 382 kts 342°
2026-04-14 16:25 6.83635 0.99826 19011 ft 383 kts 342°
2026-04-14 16:25 6.86145 0.98899 19471 ft 385 kts 342°
2026-04-14 16:26 6.88700 0.97955 19938 ft 387 kts 342°
2026-04-14 16:26 6.91226 0.97022 20390 ft 388 kts 342°
2026-04-14 16:26 6.93772 0.96082 20793 ft 391 kts 342°
2026-04-14 16:26 6.96326 0.95138 21184 ft 393 kts 342°
2026-04-14 16:27 6.98918 0.94181 21564 ft 395 kts 342°
2026-04-14 16:27 7.01512 0.93221 21951 ft 397 kts 342°
2026-04-14 16:27 7.04111 0.92261 22319 ft 399 kts 342°
2026-04-14 16:27 7.06736 0.91291 22676 ft 401 kts 342°
2026-04-14 16:28 7.09399 0.90306 22986 ft 405 kts 342°
2026-04-14 16:28 7.12027 0.89334 23310 ft 407 kts 342°
2026-04-14 16:28 7.14732 0.88334 23654 ft 409 kts 342°
2026-04-14 16:28 7.17400 0.87347 23977 ft 412 kts 341°
2026-04-14 16:29 7.20112 0.86343 24280 ft 414 kts 341°
2026-04-14 16:29 7.22843 0.85333 24598 ft 416 kts 341°
2026-04-14 16:29 7.25561 0.84327 24856 ft 419 kts 341°
2026-04-14 16:29 7.28320 0.83306 25127 ft 421 kts 341°
2026-04-14 16:30 7.31072 0.82287 25404 ft 423 kts 341°
2026-04-14 16:30 7.33834 0.81265 25672 ft 425 kts 341°
2026-04-14 16:30 7.36643 0.80224 25912 ft 428 kts 341°
2026-04-14 16:30 7.39451 0.79185 26152 ft 430 kts 341°
2026-04-14 16:31 7.42261 0.78144 26393 ft 432 kts 341°
2026-04-14 16:31 7.45103 0.77091 26613 ft 434 kts 341°
2026-04-14 16:31 7.47945 0.76038 26833 ft 437 kts 341°
2026-04-14 16:31 7.50817 0.74974 27037 ft 439 kts 340°
2026-04-14 16:32 7.53698 0.73906 27237 ft 441 kts 340°
2026-04-14 16:32 7.56606 0.72828 27461 ft 443 kts 340°
2026-04-14 16:32 7.59528 0.71745 27640 ft 445 kts 340°
2026-04-14 16:32 7.62435 0.70667 27865 ft 446 kts 340°
2026-04-14 16:33 7.65353 0.69585 28070 ft 448 kts 340°
2026-04-14 16:33 7.68340 0.68477 28237 ft 450 kts 340°
2026-04-14 16:33 7.71298 0.67380 28433 ft 452 kts 340°
2026-04-14 16:33 7.74248 0.66287 28642 ft 452 kts 341°
2026-04-14 16:34 7.77223 0.65185 28828 ft 454 kts 339°
2026-04-14 16:34 7.80229 0.64069 28989 ft 456 kts 340°
2026-04-14 16:34 7.83219 0.62959 29187 ft 456 kts 340°
2026-04-14 16:34 7.86223 0.61844 29353 ft 458 kts 339°
2026-04-14 16:35 7.89234 0.60726 29539 ft 459 kts 339°
2026-04-14 16:35 7.92225 0.59615 29722 ft 460 kts 339°
2026-04-14 16:35 7.95266 0.58485 29922 ft 460 kts 339°
2026-04-14 16:35 7.98300 0.57409 30116 ft 460 kts 344°
2026-04-14 16:36 8.01473 0.56881 30295 ft 459 kts 358°
2026-04-14 16:36 8.04660 0.57140 30433 ft 459 kts 13°
2026-04-14 16:36 8.07772 0.57994 30528 ft 461 kts 17°
2026-04-14 16:36 8.10870 0.58911 30710 ft 460 kts 17°
2026-04-14 16:37 8.13963 0.59822 30772 ft 463 kts 17°
2026-04-14 16:37 8.20202 0.61658 31018 ft 464 kts 17°
2026-04-14 16:37 8.23292 0.62567 31138 ft 465 kts 17°
2026-04-14 16:38 8.26390 0.63479 31414 ft 462 kts 17°
2026-04-14 16:38 8.29500 0.64395 31688 ft 460 kts 17°
2026-04-14 16:38 8.32573 0.65299 31768 ft 461 kts 16°
2026-04-14 16:39 8.38629 0.67082 31857 ft 466 kts 17°
2026-04-14 16:39 8.44888 0.68925 31984 ft 468 kts 16°
2026-04-14 16:40 8.51327 0.69673 32200 ft 466 kts 349°
2026-04-14 16:40 8.54423 0.68642 32304 ft 464 kts 332°
2026-04-14 16:40 8.57271 0.67037 32354 ft 465 kts 329°
2026-04-14 16:41 8.62842 0.63732 32538 ft 466 kts 329°
2026-04-14 16:41 8.65640 0.62065 32645 ft 466 kts 328°
2026-04-14 16:41 8.68460 0.60408 32797 ft 465 kts 332°
2026-04-14 16:41 8.71515 0.59215 32998 ft 464 kts 342°
2026-04-14 16:42 8.74655 0.58399 33172 ft 463 kts 348°
2026-04-14 16:42 8.81101 0.57618 33369 ft 464 kts 358°
2026-04-14 16:42 8.84338 0.57666 33528 ft 463 kts
2026-04-14 16:43 8.87545 0.58003 33639 ft 463 kts
2026-04-14 16:43 8.90697 0.58627 33765 ft 463 kts 14°
2026-04-14 16:43 8.93813 0.59545 33865 ft 462 kts 19°
2026-04-14 16:44 8.99685 0.62201 34071 ft 462 kts 30°
2026-04-14 16:44 9.04948 0.65860 34260 ft 461 kts 39°
2026-04-14 16:45 9.09971 0.69921 34429 ft 461 kts 39°
2026-04-14 16:45 9.12495 0.71960 34551 ft 460 kts 39°
2026-04-14 16:45 9.17477 0.75987 34702 ft 461 kts 39°
2026-04-14 16:46 9.22522 0.80064 34871 ft 461 kts 39°
2026-04-14 16:46 9.27535 0.84116 34848 ft 460 kts 39°
2026-04-14 16:47 9.32563 0.88182 34853 ft 460 kts 39°
2026-04-14 16:47 9.37589 0.92247 34844 ft 459 kts 39°
2026-04-14 16:48 9.42623 0.96309 34843 ft 458 kts 37°
2026-04-14 16:48 9.48038 0.99705 34845 ft 456 kts 34°
2026-04-14 16:49 9.50399 1.01814 34877 ft 453 kts 52°
2026-04-14 16:49 9.52195 1.04442 34912 ft 451 kts 58°
2026-04-14 16:49 9.55526 1.09814 34884 ft 451 kts 59°
2026-04-14 16:50 9.59033 1.15126 34916 ft 452 kts 51°
2026-04-14 16:50 9.63516 1.19557 34911 ft 453 kts 39°
2026-04-14 16:51 9.68463 1.23571 34909 ft 454 kts 39°
2026-04-14 16:51 9.73404 1.27566 34897 ft 455 kts 39°
2026-04-14 16:52 9.78381 1.31595 34914 ft 455 kts 39°
2026-04-14 16:52 9.83332 1.35604 34896 ft 457 kts 39°
2026-04-14 16:53 9.88331 1.39667 34864 ft 458 kts 39°
2026-04-14 16:53 9.93695 1.43144 34846 ft 458 kts 25°
2026-04-14 16:54 9.99783 1.45154 34851 ft 457 kts
2026-04-14 16:54 10.06138 1.45583 34858 ft 456 kts 359°
2026-04-14 16:55 10.12494 1.45575 34866 ft 456 kts 359°
2026-04-14 16:55 10.18888 1.45570 34879 ft 456 kts 359°
2026-04-14 16:56 10.25319 1.45566 34883 ft 457 kts 359°
2026-04-14 16:56 10.31716 1.45561 34877 ft 457 kts 359°
2026-04-14 16:57 10.38072 1.45556 34869 ft 458 kts 359°
2026-04-14 16:57 10.44464 1.45551 34863 ft 459 kts 359°
2026-04-14 16:58 10.50898 1.45547 34853 ft 459 kts 359°
2026-04-14 16:58 10.57308 1.45542 34851 ft 460 kts 359°
2026-04-14 16:59 10.63684 1.45537 34843 ft 460 kts 360°
2026-04-14 16:59 10.70003 1.45529 34830 ft 460 kts 359°
2026-04-14 17:00 10.76446 1.45524 34829 ft 461 kts 359°
2026-04-14 17:00 10.82899 1.45520 34823 ft 461 kts 359°
2026-04-14 17:01 10.89336 1.45516 34811 ft 462 kts 359°
2026-04-14 17:01 10.95760 1.45511 34799 ft 463 kts 359°
2026-04-14 17:02 11.02151 1.46186 34801 ft 464 kts 13°
2026-04-14 17:02 11.08375 1.48015 34794 ft 464 kts 16°
2026-04-14 17:03 11.14605 1.49890 34798 ft 465 kts 16°
2026-04-14 17:03 11.20808 1.51757 34788 ft 465 kts 16°
2026-04-14 17:04 11.27058 1.53638 34789 ft 466 kts 16°
2026-04-14 17:04 11.33299 1.55518 34787 ft 466 kts 16°
2026-04-14 17:05 11.39509 1.57388 34794 ft 466 kts 16°
2026-04-14 17:05 11.45757 1.59270 34789 ft 466 kts 16°
2026-04-14 17:06 11.52008 1.61153 34778 ft 467 kts 16°
2026-04-14 17:06 11.58228 1.63028 34790 ft 467 kts 16°
2026-04-14 17:07 11.64506 1.64922 34790 ft 468 kts 16°
2026-04-14 17:07 11.70753 1.66806 34796 ft 469 kts 16°
2026-04-14 17:08 11.77029 1.68700 34808 ft 469 kts 16°
2026-04-14 17:08 11.83343 1.70607 34808 ft 469 kts 16°
2026-04-14 17:09 11.89605 1.72499 34804 ft 470 kts 16°
2026-04-14 17:09 11.95907 1.74404 34800 ft 471 kts 16°
2026-04-14 17:10 12.02197 1.76305 34801 ft 472 kts 16°
2026-04-14 17:10 12.08506 1.78214 34803 ft 472 kts 15°
2026-04-14 17:11 12.14870 1.80140 34797 ft 473 kts 16°
2026-04-14 17:11 12.21159 1.82045 34797 ft 473 kts 16°
2026-04-14 17:12 12.27070 1.83834 34807 ft 473 kts 15°
2026-04-14 17:12 12.33386 1.85749 34804 ft 473 kts 15°